GOES 18

Last updated on Sat Jul 05 2025 00:02:21 GMT+0000 (Coordinated Universal Time)

1 51850U 22021A 25185.60959904 .00000111 00000+0 00000+0 0 9990 2 51850 0.0376 174.4292 0000349 334.1573 216.7180 1.00272891 12321
UTC large
Height (km)
Speed (km/s)
/
Latitude / Longitude
Inclination (degrees)
Orbital Period (minutes)
Azimuth
Elevation
Range (km)
Doppler Factor

Next 0 passes for location: London (51.5072 / 0.1276)

Sorry there are no passes over London.